| time (UTC) | temp F | wind direction | speed knots | gust knots | rain 1hr in | rain 24hr in | rain mn in | humidity % | barometer mb |
| 20260505031236 | 65 | 169 | 2.6 | 6.1 | 0.00 | 0.00 | 0.00 | 42 | 1017.5 |
| 20260505030256 | 65 | 157 | 3.5 | 7.8 | 0.00 | 0.00 | 0.00 | 41 | 1017.6 |
| 20260505025256 | 66 | 161 | 4.3 | 8.7 | 0.00 | 0.00 | 0.00 | 40 | 1017.5 |
| 20260505024216 | 66 | 165 | 3.5 | 7.0 | 0.00 | 0.00 | 0.00 | 39 | 1017.4 |
| 20260505023216 | 67 | 183 | 2.6 | 6.1 | 0.00 | 0.00 | 0.00 | 38 | 1017.5 |
| 20260505022216 | 67 | 141 | 4.3 | 8.7 | 0.00 | 0.00 | 0.00 | 38 | 1017.3 |
| 20260505021216 | 67 | 171 | 4.3 | 9.6 | 0.00 | 0.00 | 0.00 | 37 | 1017.3 |
| 20260505020215 | 68 | 160 | 4.3 | 7.8 | 0.00 | 0.00 | 0.00 | 36 | 1017.2 |
| 20260505015256 | 68 | 154 | 2.6 | 4.3 | 0.00 | 0.00 | 0.00 | 35 | 1017.0 |
| 20260505014215 | 68 | 173 | 1.7 | 5.2 | 0.00 | 0.00 | 0.00 | 35 | 1016.9 |
| 20260505013216 | 69 | 164 | 4.3 | 6.1 | 0.00 | 0.00 | 0.00 | 35 | 1016.7 |
| 20260505012216 | 69 | 167 | 2.6 | 7.0 | 0.00 | 0.00 | 0.00 | 34 | 1016.6 |
| 20260505011215 | 69 | 166 | 2.6 | 7.0 | 0.00 | 0.00 | 0.00 | 34 | 1016.5 |
| 20260505010216 | 70 | 159 | 2.6 | 7.0 | 0.00 | 0.00 | 0.00 | 33 | 1016.3 |
| 20260505005215 | 70 | 175 | 4.3 | 6.1 | 0.00 | 0.00 | 0.00 | 33 | 1016.1 |
| 20260505003216 | 71 | 151 | 5.2 | 8.7 | 0.00 | 0.00 | 0.00 | 33 | 1015.9 |
| 20260505002256 | 71 | 156 | 4.3 | 10.4 | 0.00 | 0.00 | 0.00 | 33 | 1015.7 |
| 20260505000215 | 72 | 167 | 3.5 | 7.8 | 0.00 | 0.00 | 0.00 | 33 | 1015.5 |
| 20260504235215 | 73 | 160 | 6.1 | 13.0 | 0.00 | 0.00 | 0.00 | 31 | 1015.4 |
| 20260504234215 | 73 | 191 | 1.7 | 6.1 | 0.00 | 0.00 | 0.00 | 30 | 1015.2 |
| 20260504233215 | 73 | 180 | 4.3 | 11.3 | 0.00 | 0.00 | 0.00 | 30 | 1015.2 |
| 20260504232235 | 73 | 160 | 7.0 | 11.3 | 0.00 | 0.00 | 0.00 | 30 | 1015.2 |
| 20260504231235 | 74 | 164 | 3.5 | 9.6 | 0.00 | 0.00 | 0.00 | 30 | 1015.1 |
| 20260504230235 | 74 | 175 | 3.5 | 10.4 | 0.00 | 0.00 | 0.00 | 30 | 1015.1 |
| 20260504225215 | 74 | 172 | 1.7 | 5.2 | 0.00 | 0.00 | 0.00 | 28 | 1015.1 |
| 20260504224236 | 74 | 186 | 3.5 | 9.6 | 0.00 | 0.00 | 0.00 | 27 | 1015.2 |
| 20260504223315 | 75 | 194 | 1.7 | 4.3 | 0.00 | 0.00 | 0.00 | 27 | 1015.1 |
| 20260504222235 | 75 | 184 | 1.7 | 7.8 | 0.00 | 0.00 | 0.00 | 26 | 1015.2 |
| 20260504221215 | 75 | 178 | 4.3 | 7.8 | 0.00 | 0.00 | 0.00 | 24 | 1015.3 |
| 20260504220215 | 76 | 182 | 5.2 | 8.7 | 0.00 | 0.00 | 0.00 | 24 | 1015.4 |
| 20260504215215 | 76 | 161 | 5.2 | 8.7 | 0.00 | 0.00 | 0.00 | 25 | 1015.4 |
| 20260504213215 | 76 | 158 | 7.0 | 13.0 | 0.00 | 0.00 | 0.00 | 24 | 1015.3 |
| 20260504212235 | 76 | 253 | 1.7 | 4.3 | 0.00 | 0.00 | 0.00 | 25 | 1015.5 |
| 20260504211215 | 77 | 236 | 2.6 | 7.8 | 0.00 | 0.00 | 0.00 | 24 | 1015.5 |
| 20260504210235 | 76 | 143 | 0.0 | 8.7 | 0.00 | 0.00 | 0.00 | 27 | 1015.3 |
| 20260504205215 | 76 | 190 | 1.7 | 6.1 | 0.00 | 0.00 | 0.00 | 26 | 1015.5 |
| 20260504204235 | 76 | 252 | 0.9 | 7.0 | 0.00 | 0.00 | 0.00 | 24 | 1015.8 |
| 20260504203215 | 76 | 151 | 5.2 | 10.4 | 0.00 | 0.00 | 0.00 | 25 | 1015.9 |
| 20260504202215 | 76 | 216 | 1.7 | 7.0 | 0.00 | 0.00 | 0.00 | 23 | 1016.2 |
| 20260504201215 | 75 | 195 | 1.7 | 5.2 | 0.00 | 0.00 | 0.00 | 24 | 1016.2 |
| 20260504200235 | 76 | 192 | 3.5 | 8.7 | 0.00 | 0.00 | 0.00 | 24 | 1016.3 |
| 20260504195215 | 75 | 250 | 0.9 | 8.7 | 0.00 | 0.00 | 0.00 | 25 | 1016.5 |
| 20260504194257 | 76 | 235 | 3.5 | 7.0 | 0.00 | 0.00 | 0.00 | 23 | 1016.6 |
| 20260504193217 | 76 | 158 | 3.5 | 7.0 | 0.00 | 0.00 | 0.00 | 27 | 1016.6 |
| 20260504192237 | 75 | 131 | 3.5 | 7.8 | 0.00 | 0.00 | 0.00 | 23 | 1016.8 |
| 20260504191237 | 75 | 158 | 3.5 | 9.6 | 0.00 | 0.00 | 0.00 | 27 | 1016.9 |
| 20260504190237 | 74 | 180 | 1.7 | 5.2 | 0.00 | 0.00 | 0.00 | 27 | 1016.9 |
| 20260504185237 | 73 | 169 | 2.6 | 7.8 | 0.00 | 0.00 | 0.00 | 28 | 1017.1 |
| 20260504184217 | 74 | 207 | 1.7 | 5.2 | 0.00 | 0.00 | 0.00 | 27 | 1017.2 |
| 20260504182237 | 74 | 185 | 1.7 | 5.2 | 0.00 | 0.00 | 0.00 | 28 | 1017.4 |
| 20260504181237 | 74 | 117 | 0.9 | 4.3 | 0.00 | 0.00 | 0.00 | 28 | 1017.4 |
| 20260504175217 | 75 | 180 | 1.7 | 7.0 | 0.00 | 0.00 | 0.00 | 28 | 1017.8 |
| 20260504174216 | 73 | 174 | 0.9 | 2.6 | 0.00 | 0.00 | 0.00 | 30 | 1017.8 |
| 20260504173237 | 72 | 153 | 4.3 | 8.7 | 0.00 | 0.00 | 0.00 | 29 | 1017.8 |
| 20260504171217 | 74 | 287 | 0.0 | 1.7 | 0.00 | 0.00 | 0.00 | 28 | 1018.1 |
| 20260504170217 | 74 | 277 | 0.0 | 3.5 | 0.00 | 0.00 | 0.00 | 28 | 1018.0 |
| 20260504160216 | 70 | 185 | 2.6 | 6.1 | 0.00 | 0.00 | 0.00 | 33 | 1019.4 |
| 20260504150216 | 68 | 100 | 0.0 | 3.5 | 0.00 | 0.00 | 0.00 | 36 | 1019.4 |
| 20260504141216 | 64 | 196 | 0.9 | 2.6 | 0.00 | 0.00 | 0.00 | 53 | 1019.4 |
| 20260504140236 | 63 | 198 | 0.0 | 1.7 | 0.00 | 0.00 | 0.00 | 57 | 1019.5 |
| 20260504130216 | 55 | 166 | 0.9 | 1.7 | 0.00 | 0.00 | 0.00 | 68 | 1019.4 |
| 20260504120236 | 50 | 158 | 0.9 | 1.7 | 0.00 | 0.00 | 0.00 | 75 | 1018.9 |
| 20260504110216 | 47 | 173 | 0.9 | 3.5 | 0.00 | 0.00 | 0.00 | 79 | 1018.9 |
| 20260504100215 | 48 | 179 | 0.9 | 2.6 | 0.00 | 0.00 | 0.00 | 75 | 1018.9 |
| 20260504081255 | 50 | 142 | 3.5 | 6.1 | 0.00 | 0.00 | 0.00 | 72 | 1018.4 |
| 20260504080216 | 50 | 156 | 1.7 | 3.5 | 0.00 | 0.00 | 0.00 | 71 | 1018.3 |
| 20260504070215 | 51 | 178 | 0.9 | 3.5 | 0.00 | 0.00 | 0.00 | 67 | 1018.7 |
| 20260504060215 | 53 | 154 | 1.7 | 3.5 | 0.00 | 0.00 | 0.00 | 64 | 1019.0 |
| 20260504050255 | 54 | 160 | 3.5 | 5.2 | 0.00 | 0.00 | 0.00 | 62 | 1018.9 |
| 20260504045235 | 54 | 164 | 2.6 | 5.2 | 0.00 | 0.00 | 0.00 | 61 | 1019.1 |
| 20260504044235 | 54 | 156 | 1.7 | 4.3 | 0.00 | 0.00 | 0.00 | 61 | 1019.2 |
| 20260504043315 | 54 | 157 | 1.7 | 4.3 | 0.00 | 0.00 | 0.00 | 60 | 1019.2 |
| 20260504042215 | 55 | 169 | 1.7 | 3.5 | 0.00 | 0.00 | 0.00 | 60 | 1019.3 |
| 20260504041215 | 55 | 171 | 1.7 | 3.5 | 0.00 | 0.00 | 0.00 | 60 | 1019.3 |
| 20260504040215 | 55 | 164 | 1.7 | 3.5 | 0.00 | 0.00 | 0.00 | 59 | 1019.3 |
| 20260504035236 | 55 | 164 | 0.9 | 5.2 | 0.00 | 0.00 | 0.00 | 59 | 1019.3 |
| 20260504034216 | 55 | 167 | 0.9 | 2.6 | 0.00 | 0.00 | 0.00 | 58 | 1019.5 |
| 20260504033236 | 56 | 185 | 1.7 | 5.2 | 0.00 | 0.00 | 0.00 | 57 | 1019.4 |